Date,TemperatureHighF,TemperatureAvgF,TemperatureLowF,DewpointHighF,DewpointAvgF,DewpointLowF,HumidityHigh,HumidityAvg,HumidityLow,PressureMaxIn,PressureMinIn,WindSpeedMaxMPH,WindSpeedAvgMPH,GustSpeedMaxMPH,PrecipitationSumIn
2013-3-1,46.2,39.4,30.8,32.7,28.7,26.5,88,67,49,29.85,29.77,3,1,6,0.00
2013-3-2,46.2,37.7,29.2,30.8,26.3,19.6,90,65,46,29.86,29.76,3,1,5,0.00
2013-3-3,44.8,34.6,26.9,23.2,20.4,17.9,82,57,38,29.92,29.79,4,2,6,0.00
2013-3-4,50.7,35.0,22.9,24.5,17.9,14.6,80,53,24,30.06,29.91,4,1,7,0.00
2013-3-5,47.7,39.9,31.8,42.4,34.6,24.6,97,83,47,30.01,29.51,3,1,7,0.35
2013-3-6,46.5,40.1,34.8,40.8,32.6,28.1,97,76,55,29.97,29.46,4,1,22,0.01
2013-3-7,49.6,41.1,32.8,32.3,29.1,25.6,82,63,48,30.17,29.97,2,0,22,0.00
2013-3-8,54.4,42.2,30.6,29.5,26.3,24.2,81,56,32,30.23,30.09,2,0,4,0.00
2013-3-9,61.9,43.8,28.5,33.3,29.1,25.5,90,62,26,30.29,30.18,2,0,4,0.00
2013-3-10,66.2,46.8,29.1,35.6,29.8,25.9,95,59,23,30.26,30.14,3,1,7,0.00
2013-3-11,66.9,52.9,36.9,53.1,42.8,26.4,86,69,52,30.17,29.85,4,1,6,0.00
2013-3-12,66.8,58.5,47.0,60.2,51.7,32.1,98,80,52,29.90,29.67,5,3,13,0.71
2013-3-13,54.5,43.9,31.3,34.3,27.6,18.3,94,56,31,30.07,29.89,7,3,13,0.00
2013-3-14,52.8,39.6,29.9,26.2,19.7,16.8,72,47,24,30.18,30.05,5,2,11,0.00
2013-3-15,62.3,44.6,26.3,38.4,28.9,21.5,87,57,34,30.12,29.82,5,2,12,0.00
2013-3-16,76.1,59.3,42.8,56.6,45.5,36.5,88,64,37,29.82,29.57,6,2,10,0.00
2013-3-17,55.4,47.9,39.0,51.8,43.4,37.2,97,85,68,30.12,29.76,3,1,7,0.00
2013-3-18,40.4,38.4,36.7,39.4,37.4,35.7,97,96,94,30.15,29.78,3,1,8,0.18
2013-3-19,66.3,50.2,37.9,46.0,31.2,8.6,98,60,18,29.97,29.76,7,2,12,0.00
2013-3-20,55.6,45.4,35.6,28.4,16.8,9.4,70,34,19,30.05,29.74,5,2,7,0.00
2013-3-21,44.2,37.8,29.3,32.9,19.6,11.1,76,49,28,29.92,29.67,6,3,11,0.00
2013-3-22,50.5,35.8,21.1,27.9,16.4,11.8,81,49,23,30.03,29.91,4,1,7,0.00
2013-3-23,56.0,42.5,31.3,34.7,27.8,20.1,84,59,33,30.00,29.85,3,0,7,0.00
2013-3-24,39.4,36.4,32.5,38.1,34.3,29.3,96,92,84,29.87,29.52,2,1,10,0.66
2013-3-25,46.3,38.9,33.4,37.7,30.1,23.6,97,74,44,29.75,29.50,9,3,20,0.02
2013-3-26,48.3,40.9,30.0,30.2,27.2,24.1,86,59,45,30.04,29.75,4,2,12,0.00
2013-3-27,51.4,40.9,30.9,27.8,25.0,21.3,78,56,32,30.17,30.05,6,3,12,0.00
2013-3-28,55.9,41.4,28.1,29.3,25.5,23.9,86,57,29,30.23,30.10,5,2,10,0.00
2013-3-29,59.6,43.8,26.7,33.6,27.0,23.4,90,57,26,30.27,30.12,4,1,9,0.00
2013-3-30,66.6,50.8,35.4,42.1,34.0,28.9,88,58,25,30.18,30.01,3,1,6,0.00
2013-3-31,66.1,54.7,46.9,56.5,50.2,42.1,97,85,65,30.02,29.74,5,1,8,0.59